Location: Middelsbur
(53.6609°N, 7.5020°E)
Time: 12:38:29
(UTC+00:00)

JB-3 - Pass Details

Date: 06 July 2020
Orbit: 525 x 590 km, 97.3° (Epoch: 07 August)

Event Time Altitude Azimuth Distance (km) Brightness Sun altitude
Rises 21:38:21 0° 16° (NNE) 2,699 8.6 -9.7°
Reaches altitude 10° 21:40:30 10° 20° (NNE) 1,796 7.6 -9.9°
Maximum altitude 21:44:20 59° 101° (E) 615 4.4 -10.1°
Enters shadow 21:47:46 12° 181° (S) 1,630 6.2 -10.3°
